Location: Austin
(30.3000°N, 97.7500°W)
Time: 11:10:25
(UTC-05:00)

Cosmos 2181 Rocket - Pass Details

Date: 26 May 2023
Orbit: 951 x 1015 km, 82.9° (Epoch: 30 May)

Event Time Altitude Azimuth Distance (km) Brightness Sun altitude
Rises 21:23:36 0° 1° (N) 3,645 7.5 -11.9°
Reaches altitude 10° 21:26:13 10° 7° (N) 2,690 6.7 -12.3°
Maximum altitude 21:32:07 48° 81° (E) 1,222 4.2 -13.4°
Enters shadow 21:36:44 16° 151° (SSE) 2,235 5.4 -14.2°
